www.pogodaiklimat.ru

АРХИВ ПОГОДЫ в Волгограде

Время (UTC), дата Ветер
(напр.,м/с)
 
Видим.   Явления Облачность Т
(С)
Тd
(С)
f
(%)
Тe
(С)
Тes
(С)
Комфортность P
(гПа)
Po
(гПа)
Тmin
(С)
Tmax
(С)
R
(мм)
S
(см)
15 18.07 В 5 10 км 3/3 1500 м
[Cb calv]
+36.8 +8.6 18 +35 +36 очень
жарко
1005.1 990.4 +38.6
18 18.07 В 6
{11}
10 км 4/0
[Ac trans]
+30.5 +13.8 36 +32 +32 жарко 1005.1 990.1
21 18.07 В 5 10 км ясно +27.9 +10.2 33 +28 +28 жарко 1005.4 990.3
00 19.07 В 6
{10}
10 км 3/0
[Ac trans]
+27.0 +7.0 28 +27 +27 жарко 1004.4 989.2
03 19.07 ЮВ 5 10 км 8/0
[Ac trans Ci fib]
+25.6 +8.2 33 +26 +26 жарко 1003.7 988.5 +24.9
06 19.07 Ю 3 10 км 5/0
[Ac trans]
+29.8 +10.4 30 +30 +36 жарко 1003.4 988.4
09 19.07 ЮВ 4 10 км 9/3 1000 м
[Cu med, cong Ac trans]
+31.7 +11.5 29 +32 +36 жарко 1002.4 987.5
12 19.07 В 5 10 км 9/3 1000 м
[Cu med, cong Ac trans]
+32.7 +11.3 27 +33 +35 жарко 1001.1 986.3
15 19.07 ЮЗ 9 10 км слабый ливневой дождь 9/6 1000 м
[Cb cap Ac trans]
+29.6 +13.8 38 +31 +31 жарко 1002.3 987.3 +34.1
18 19.07 СВ 3
{14}
10 км {ливн. осадки} 9/6 1000 м
[Cb calv Ac trans]
+24.3 +14.7 55 +27 +27 жарко 1002.5 987.3
21 19.07 ЮЗ 3 10 км 9/4 1500 м
[Cb calv Ac trans]
+22.2 +16.9 72 +27 +27 душно 1003.7 988.4
00 20.07 ЮЗ 2 10 км 5/0
[Ac trans]
+20.4 +18.5 89 +25 +25 комфорт 1003.5 988.1
03 20.07 ЮЗ 3 10 км ясно +21.5 +18.9 85 +26 +27 душно 1004.3 988.9 +19.7
06 20.07 З 8-12
{11}
10 км 6/4 600 м
[Cu hum Ci fib]
+26.1 +16.6 56 +30 +31 душно 1004.9 989.7
09 20.07 З 6-10
{12}
10 км 6/6 1000 м
[Cu med, cong]
+29.1 +14.9 42 +32 +34 душно 1004.9 989.9
12 20.07 ЮЗ 7
{12}
10 км 6/6 1000 м
[Cu med, cong]
+29.8 +14.0 38 +32 +33 душно 1005.2 990.2
15 20.07 З 6
{10}
10 км 5/5 1000 м
[Cu med, cong]
+28.1 +13.6 41 +30 +30 жарко 1006.5 991.4 +30.7
18 20.07 З 3 10 км 4/0
[Ac trans]
+24.1 +14.8 56 +27 +27 жарко 1008.1 992.8
21 20.07 СЗ 3 10 км ясно +19.9 +14.3 70 +22 +22 комфорт 1009.3 993.7
00 21.07 СЗ 3 10 км ясно +16.9 +14.4 85 +17 +17 по сезону 1010.5 994.8
03 21.07 СЗ 2 10 км ясно +18.2 +15.5 84 +19 +20 прохладно 1011.3 995.6 +15.6
06 21.07 СЗ 3 10 км 4/0
[Ci fib]
+23.3 +15.0 60 +27 +36 душно 1011.2 995.7
09 21.07 СЗ 3 10 км 9/3 1500 м
[Cu hum Ac trans Ci fib]
+26.5 +12.9 43 +28 +34 жарко 1011.0 995.7
12 21.07 З 4 10 км 9/3 1500 м
[Cb calv Ac trans Ci fib]
+28.0 +10.4 33 +28 +31 жарко 1011.2 996.0
15 21.07 З 2
{12}
10 км слабый ливневой дождь {гроза} 9/5 1500 м
[Cb calv Ac trans]
+20.8 +17.3 80 +25 +26 комфорт 1011.0 995.4 +28.3
18 21.07 З 2
{12}
10 км слабый ливневой дождь {гроза} 9/5 1500 м
[Cb calv Ac trans]
+18.5 +17.2 92 +20 +20 прохладно 1012.3 996.6
21 21.07 СЗ 3 10 км слабый ливневой дождь 9/5 1500 м
[Cb calv Ac trans]
+17.8 +17.0 95 +18 +18 прохладно 1011.8 996.1
00 22.07 СЗ 5 4000 м слабый ливневой дождь 9/9 120 м
[Cb calv]
+17.5 +17.0 97 +17 +17 по сезону 1011.3 995.6
03 22.07 ЮЗ 3 10 км {ливн. осадки} 9/9 120 м
[St]
+17.2 +16.7 97 +17 +17 холодно 1011.2 995.5 +16.8
06 22.07 З 4 10 км {ливн. осадки} 8/8 600 м
[Cb calv]
+19.8 +17.4 86 +22 +24 комфорт 1010.8 995.1
09 22.07 З 7
{10}
10 км 5/5 1000 м
[Cu med, cong]
+25.7 +15.1 52 +29 +31 душно 1010.0 994.7
12 22.07 З 5
{12}
10 км 5/5 1500 м
[Cu hum]
+27.1 +12.0 39 +28 +31 жарко 1009.7 994.5
15 22.07 З 6
{11}
10 км 8/3 1500 м
[Cu hum Ac trans]
+24.9 +13.2 48 +27 +27 жарко 1009.9 994.5 +28.2
18 22.07 ЮЗ 2
{11}
10 км 8/0
[Ac trans]
+21.0 +13.3 61 +24 +24 комфорт 1010.6 995.0
21 22.07 Ю 3 10 км 8/0
[Ac trans]
+18.7 +14.4 76 +20 +20 по сезону 1009.5 993.9
00 23.07 ЮЗ 3 10 км 8/0
[Ac trans]
+19.4 +13.7 70 +21 +21 комфорт 1008.9 993.2
03 23.07 Ю 4 10 км в посл. час ливневой дождь 9/4 1500 м
[Cb calv Ac trans]
+19.1 +16.2 83 +21 +21 комфорт 1008.2 992.5 +18.3
06 23.07 ЮЗ 8
{10}
10 км {ливн. осадки} 9/4 600 м
[Cb calv Ac trans]
+21.7 +16.7 73 +26 +26 душно 1007.4 991.9
09 23.07 З 9-13
{15}
10 км 8/4 1500 м
[Cu hum Ac trans]
+24.8 +11.8 44 +26 +27 жарко 1006.6 991.3
12 23.07 З 7-10
{15}
10 км 8/4 1500 м
[Cu hum Ac trans]
+26.0 +12.4 43 +28 +29 жарко 1006.5 991.3
15 23.07 СЗ 7-10
{10}
10 км 8/4 1500 м
[Cu hum Ac trans]
+23.6 +12.6 50 +26 +26 жарко 1006.7 991.3 +26.6
18 23.07 СВ 2
{10}
10 км 9/0
[Ac trans]
+20.4 +13.9 66 +23 +23 комфорт 1007.4 991.8
21 23.07 Ю 2 10 км 8/4 1500 м
[Cb calv Ac trans]
+19.8 +14.5 71 +22 +22 комфорт 1006.7 991.1
00 24.07 ЮЗ 1 10 км 8/0
[Ac trans]
+18.3 +14.9 81 +20 +20 тепло 1006.2 990.5
03 24.07 Ю 3 10 км в посл. час ливневой дождь 9/4 1500 м
[Cb calv Ac trans]
+18.2 +16.5 90 +19 +19 прохладно 1006.3 990.6 +17.8
06 24.07 Ю 4 10 км {ливн. осадки} 9/4 1000 м
[Cb calv Ac trans]
+20.3 +15.7 75 +23 +25 комфорт 1006.3 990.7
09 24.07 ЮВ 4 10 км 9/4
[Cb calv Ac trans]
+22.1 +14.5 62 +25 +29 комфорт 1005.9 990.4
12 24.07 З 3 10 км слабый ливневой дождь 9/5 1500 м
[Cb calv Ac trans]
+19.6 +16.5 82 +22 +24 комфорт 1006.7 991.1
15 24.07 СВ 4 10 км в посл. час ливневой дождь 9/5 1500 м
[Cb calv Ac trans]
+21.1 +16.9 77 +25 +25 комфорт 1006.1 990.6 +24.4
18 24.07 ЮВ 3 10 км гроза без осадков {ливн. осадки} 9/5 1500 м
[Cb calv Ac trans]
+20.5 +16.2 76 +24 +24 комфорт 1007.0 991.4
21 24.07 СВ 2 10 км слабый ливневой дождь {гроза} 9/5 1500 м
[Cb calv Ac trans]
+19.3 +16.5 84 +22 +22 комфорт 1007.0 991.4
00 25.07 В 6 10 км слабый ливневой дождь {гроза} 9/5 1500 м
[Cb calv Ac trans]
+17.5 +15.8 90 +17 +17 по сезону 1008.0 992.3
03 25.07 В 5 10 км слабый ливневой дождь 9/6 100 м
[Cb calv]
+17.6 +16.8 95 +17 +17 холодно 1008.9 993.2 +17.2
06 25.07 СВ 4 10 км в посл. час ливневой дождь 9/4 1500 м
[Cb calv Ac trans]
+20.0 +17.4 85 +23 +25 комфорт 1009.3 993.7
09 25.07 СВ 5 10 км в посл. час ливневой дождь 9/4 900 м
[Cb calv Ac trans]
+22.4 +17.1 72 +27 +30 душно 1009.3 993.8
12 25.07 Ю 2
{10}
10 км гроза без осадков {ливн. осадки} 9/5 1000 м
[Cb cap Ac trans]
+23.9 +17.3 67 +28 +31 душно 1008.8 993.4

 

Местоположение метеостанции Волгоград (Волгоградская область, Россия): широта 48.78 долгота 44.37 высота над уровнем моря 134 м.

В архиве по умолчанию представлена погода в Волгограде за последнюю неделю. Архивные данные за месяц целиком и за предыдущие месяцы, начиная с января 2011 года, Вы можете получить, выбрав интересующий диапазон дат из раскрывающегося списка и нажав кнопку "Ввод!".

Внимание! Время в таблицах - всемирное. Для получения местного времени необходимо прибавить поправку, которая в Волгограде равна 3 ч.

Ветер - указаны скорость ветра в м/с - средняя за 10 мин, порывы в срок и между сроками (в фигурных скобках) и направление, откуда дует ветер: С - северный, СВ - северо-восточный, В - восточный, ЮВ - юго-восточный, Ю - южный, ЮЗ - юго-западный, З - западный, СЗ - северо-западный.
Видимость - горизонтальная дальность видимости в метрах или километрах. При видимости от 1 до 10 км при отсутствии осадков обычно наблюдается дымка, при ухудшении видимости до 1 км и менее - туман. В сухую погоду видимость может ухудшаться дымом, пылью или мглою.
Явления - указаны атмосферные явления, наблюдавшиеся в срок или в последний час перед сроком; фигурными скобками обозначены явления, наблюдавшиеся между сроками (за 1-3 часа до срока); квадратными скобками обозначены град или гололедные отложения с указанием их диаметра в мм.
Облачность - указаны через наклонную черту общая и нижняя облачность в баллах и высота нижней границы облаков в метрах; квадратными скобками обозначены формы облаков: Ci - перистые, Cs - перисто-слоистые, Cc - перисто-кучевые, Ac - высококучевые, As - высокослоистые, Sc - слоисто-кучевые, Ns - слоисто-дождевые, Cu - кучевые, Cb - кучево-дождевые. Подробнее классификацию облаков см. в Атласе облаков (PDF).
T - Температура воздуха - температура, измеренная на высоте 2 м над землей.
Td - Температура точки росы - температура, при понижении до которой содержащийся в воздухе водяной пар достигнет насыщения.
f - Относительная влажность воздуха - влажноcть воздуха, измеренная на высоте 2 м над землей.
Te - Эффективная температура - температура, которую ощущает одетый по сезону человек в тени. Характеристика душности погоды. При расчете учитывается влияние влажности воздуха и скорости ветра на теплоощущения человека.
Tes - Эффективная температура на солнце - температура, которую ощущает человек, с поправкой на солнечный нагрев. Характеристика знойности погоды. Зависит от высоты солнца над горизонтом, облачности и скорости ветра. Ночью, в пасмурную погоду, а также при ветре 12 м/с и более поправка равна нулю.
P - Атмосферное давление - приведенное к уровню моря атмосферное давление.
Po - Атмосферное давление - измеренное на уровне метеостанции атмосферное давление.
Tmin - Минимальная температура - минимум температуры воздуха на высоте 2 м над землей.
Tmax - Максимальная температура - максимум температуры воздуха на высоте 2 м над землей.
R - Количество осадков - Количество выпавших осадков, мм. При наведении курсора мыши на число - период времени, за который выпало указанное количество осадков.
S - Снежный покров - Высота снежного покрова, см. При наведении курсора мыши на число - состояние снежного покрова и степень покрытия местности в баллах.